This is the latest recevied weather packets stored in our database for station/object KI6SYE. If no packets are shown the sender has not sent any weather packets the latest 10 day(s).
| Time | Temp. | Humidity | Pressure | Rain* | Wind** | Luminosity | Snow |
|---|---|---|---|---|---|---|---|
| 1787953451 | 27.22° C | 82% | 1010.8 hPa | 0 mm | - | 677 W/m² | - |
| 1787953148 | 27.22° C | 83% | 1010.9 hPa | 0 mm | - | 644 W/m² | - |
| 1787952848 | 27.22° C | 82% | 1011.2 hPa | 0 mm | - | 541 W/m² | - |
| 1787952543 | 27.22° C | 81% | 1011.3 hPa | 0 mm | - | 487 W/m² | - |
| 1787952241 | 27.22° C | 82% | 1011.2 hPa | 0 mm | - | 641 W/m² | - |
| 1787951938 | 26.67° C | 82% | 1011.3 hPa | 0 mm | - | 369 W/m² | - |
| 1787951634 | 26.67° C | 82% | 1011.3 hPa | 0 mm | - | 683 W/m² | - |
| 1787951329 | 27.22° C | 82% | 1011.5 hPa | 0 mm | - | 551 W/m² | - |
| 1787951025 | 26.67° C | 83% | 1011.6 hPa | 0 mm | - | 613 W/m² | - |
| 1787950719 | 26.67° C | 83% | 1011.7 hPa | 0 mm | - | 656 W/m² | - |
| 1787950416 | 26.67° C | 84% | 1011.4 hPa | 0 mm | - | 439 W/m² | - |
| 1787950112 | 26.67° C | 83% | 1011.8 hPa | 0 mm | - | 634 W/m² | - |
| 1787949807 | 26.67° C | 82% | 1011.6 hPa | 0 mm | - | 593 W/m² | - |
| 1787949506 | 27.22° C | 81% | 1011.4 hPa | 0 mm | - | 477 W/m² | - |
| 1787949202 | 26.67° C | 83% | 1011.5 hPa | 0 mm | - | 791 W/m² | - |
| 1787948897 | 26.67° C | 83% | 1011.4 hPa | 0 mm | - | 729 W/m² | - |
| 1787948593 | 27.22° C | 82% | 1011.4 hPa | 0 mm | - | 697 W/m² | - |
| 1787948288 | 27.78° C | 79% | 1011.6 hPa | 0 mm | - | 682 W/m² | - |
| 1787947988 | 27.78° C | 80% | 1011.8 hPa | 0 mm | - | 674 W/m² | - |
| 1787947687 | 27.22° C | 81% | 1011.8 hPa | 0 mm | - | 719 W/m² | - |
| 1787947381 | 27.22° C | 82% | 1012.1 hPa | 0 mm | - | 769 W/m² | - |
| 1787947080 | 26.67° C | 83% | 1011.9 hPa | 0 mm | - | 813 W/m² | - |
| 1787946774 | 26.67° C | 84% | 1011.9 hPa | 0 mm | - | 791 W/m² | - |
| 1787946472 | 26.67° C | 84% | 1012 hPa | 0 mm | - | 769 W/m² | - |
| 1787946168 | 26.11° C | 85% | 1011.9 hPa | 0 mm | - | 766 W/m² | - |
* Rain latest hour (hover to see other rain measurements)
** Current wind speed in m/s (hover to see current wind gust speed)